www.pogodaiklimat.ru

Погода и климат >> Архив погоды >> Украина >> Львов


АРХИВ ПОГОДЫ в Львове

Время (UTC), дата Ветер
(напр.,м/с)
 
Видим.   Явления Облачность Т
(С)
Тd
(С)
f
(%)
Тe
(С)
Тes
(С)
Комфортность P
(гПа)
Po
(гПа)
Тmin
(С)
Tmax
(С)
R
(мм)
R24
(мм)
S
(см)
06 13.02 З 5 10 км 8/8 450 м
[Sc]
-2.7 -4.3 89 -9 -9 по сезону 1029.0 988.1 -2.9 0.3 1
09 13.02 З 5 10 км 10/10 420 м
[Sc]
-0.8 -2.7 87 -7 -7 по сезону 1029.4 988.8
12 13.02 З 6 10 км 10/10 1300 м
[Sc]
+1.2 -2.3 77 -5 -5 по сезону 1027.9 987.6
15 13.02 З 6 4100 м ливневой снег 10/10 420 м
[Cb calv]
+1.1 -0.9 86 -5 -5 по сезону 1026.4 986.2
18 13.02 З 7 10 км слаб. ливневой дождь 10/10 150 м
[Cb cap]
+1.2 +0.1 92 -6 -6 по сезону 1027.0 986.8 +1.8 0.8
21 13.02 З 5 6000 м в посл. час ливневой дождь 10/10 210 м
[Cb cap]
+2.6 +1.6 93 -3 -3 по сезону 1027.5 987.4
00 14.02 З 5 5000 м дымка {ливн. осадки} 10/10 240 м
[St]
+2.9 +2.1 94 -3 -3 тепло 1027.4 987.4
03 14.02 СЗ 4 10 км 10/10 420 м
[Sc]
+3.3 +1.5 88 -1 -1 тепло 1028.4 988.4
06 14.02 СЗ 5 10 км 9/9 900 м
[Sc]
+2.8 +1.2 89 -3 -3 тепло 1029.6 989.5 +1.2 0.9 <0.5
09 14.02 СЗ 3 10 км 10/10 480 м
[Sc]
+3.3 +1.0 85 -1 -1 тепло 1031.0 990.9
12 14.02 СЗ 3 10 км в посл. час ливневой дождь 10/10 400 м
[Cb calv]
+3.1 +1.3 88 -1 -1 по сезону 1030.6 990.5
15 14.02 СЗ 2 10 км 10/10 660 м
[Sc]
+3.7 0.0 77 +1 +1 тепло 1031.0 990.9
18 14.02 СЗ 1 10 км 10/10 870 м
[Sc]
+3.1 -0.4 78 +2 +2 тепло 1032.1 992.0 +4.0 0.0
21 14.02 СЗ 2 10 км 10/10 930 м
[Sc]
+3.0 +0.3 82 0 0 тепло 1032.7 992.5
00 15.02 штиль 0 10 км 8/8 900 м
[Sc]
+0.7 -1.0 88 -1 -1 тепло 1033.3 992.7
03 15.02 штиль 0 1900 м дымка 10/10 150 м
[St]
-1.4 -2.5 92 -3 -3 тепло 1033.6 992.7
06 15.02 штиль 0 3200 м дымка 10/10 240 м
[St]
+0.3 -0.8 92 -1 -1 тепло 1034.4 993.7 -2.1 <0.5
09 15.02 З 2 5000 м дымка 10/10 150 м
[St]
+1.7 +0.4 91 -2 -2 по сезону 1034.8 994.3
12 15.02 З 2 10 км 10/10 630 м
[Sc]
+4.4 +1.3 80 +2 +2 тепло 1033.4 993.4
15 15.02 З 1 10 км 10/10 700 м
[Sc]
+5.0 +1.5 78 +4 +4 тепло 1032.0 992.1
18 15.02 З 2 10 км 10/10 630 м
[Sc]
+4.6 +1.0 77 +2 +2 тепло 1031.7 991.8 +5.1
21 15.02 З 2 10 км 10/10 700 м
[Sc]
+3.7 +1.1 83 +1 +1 тепло 1031.7 991.6
00 16.02 ЮЗ 2 10 км 10/10 720 м
[Sc]
+3.5 +1.2 85 +1 +1 тепло 1030.9 990.8
03 16.02 З 2 10 км 10/10 800 м
[Sc]
+3.4 +1.6 88 0 0 тепло 1029.9 989.9
06 16.02 СЗ 3 1300 м дымка 10/10 60 м
[St]
+1.2 +0.9 98 -3 -3 тепло 1030.7 990.3 +1.0 <0.5
09 16.02 З 3 5000 м дымка {туман} 6/6 210 м
[St]
+2.8 +0.7 86 -1 0 тепло 1030.8 990.6
12 16.02 З 3 9000 м дымка {туман} 3/0
[Ci fib]
+6.7 +2.6 75 +4 +7 тепло 1029.4 989.8
15 16.02 СЗ 1 10 км 3/0
[Ci fib]
+8.9 +2.6 65 +9 +9 тепло 1027.6 988.4
18 16.02 штиль 0 7000 м дымка ясно +1.4 +0.6 94 0 0 тепло 1028.4 988.1 +9.1
21 16.02 ЮВ 1 7000 м дымка ясно +0.3 -0.3 96 -2 -2 тепло 1028.1 987.7
00 17.02 ЮВ 2 9000 м дымка ясно -2.1 -3.3 91 -6 -6 по сезону 1027.6 986.8
03 17.02 Ю 1 10 км ясно +0.2 -1.4 89 -2 -2 тепло 1026.2 985.8
06 17.02 Ю 1 10 км 3/0
[Ci fib]
-1.3 -2.6 91 -4 -3 по сезону 1026.4 985.8 -2.8
09 17.02 З 6 10 км 3/0
[Ci fib]
+6.9 +1.2 67 +3 +4 тепло 1025.6 986.2
12 17.02 З 7 10 км ясно +11.0 +1.0 50 +8 +9 тепло 1023.9 985.1
15 17.02 З 5 10 км ясно +10.4 +1.1 52 +8 +8 тепло 1023.0 984.2
18 17.02 СЗ 2 10 км ясно +5.1 +0.4 72 +3 +3 тепло 1024.2 984.7 +11.6
21 17.02 штиль 0 10 км ясно +1.7 -0.5 85 +1 +1 тепло 1026.0 985.8
00 18.02 штиль 0 5000 м дымка ясно -1.4 -2.0 96 -3 -3 по сезону 1026.6 986.0
03 18.02 штиль 0 7000 м дымка 10/10 570 м
[Sc]
+0.4 -0.7 92 -1 -1 тепло 1025.6 985.3
06 18.02 штиль 0 6000 м дымка 8/8 540 м
[Sc]
-0.2 -1.1 94 -2 -1 тепло 1026.4 985.9 -2.4
09 18.02 ЮЗ 1 10 км 3/0
[Ci fib]
+5.4 +1.9 78 +4 +9 тепло 1025.6 986.0
12 18.02 штиль 0 10 км 3/0
[Ac trans]
+9.0 +1.8 61 +9 +13 тепло 1023.9 984.9
15 18.02 С 1 10 км 3/0
[Ci fib]
+9.0 +0.7 56 +9 +9 тепло 1022.9 983.9
18 18.02 В 2 8000 м дымка 6/0
[Ci fib]
+4.9 +3.0 87 +2 +2 тепло 1023.1 983.6 +10.6
21 18.02 ЮВ 3 7000 м дымка 4/0
[Ci fib]
+2.2 +0.9 91 -2 -2 тепло 1023.0 983.1
00 19.02 ЮВ 2 6000 м дымка 4/0
[Ci fib]
+0.9 +0.1 94 -3 -3 по сезону 1022.7 982.7
03 19.02 ЮВ 2 4800 м дымка ясно -0.6 -1.5 94 -4 -4 по сезону 1021.6 981.3
06 19.02 ЮВ 2 2700 м дымка 3/0
[Ci fib]
-1.9 -2.7 94 -6 -6 по сезону 1021.1 980.7 -2.5
09 19.02 Ю 3 10 км 3/0
[Ci fib]
+6.4 +2.3 75 +3 +7 тепло 1019.5 980.3
12 19.02 ЮЗ 3 10 км 4/0
[Ci fib]
+11.8 +1.9 51 +10 +14 тепло 1017.1 978.7
15 19.02 ЮЗ 3 10 км ясно +12.3 +1.1 46 +11 +11 тепло 1015.4 977.1
18 19.02 ЮЗ 3 10 км ясно +6.8 -1.0 58 +4 +4 тепло 1015.9 976.9 +12.8
21 19.02 ЮЗ 1 10 км ясно +4.2 -2.9 60 +3 +3 тепло 1016.1 976.7
00 20.02 штиль 0 10 км ясно -1.6 -3.9 84 -3 -3 тепло 1017.1 976.8
03 20.02 СЗ 3 9000 м слаб. ливневой дождь 10/10 720 м
[Cb calv]
+3.4 +1.4 87 -1 -1 тепло 1016.6 977.1

 

Местоположение метеостанции Львов (Львовская область, Украина): широта 49.82 долгота 23.95 высота над уровнем моря 323 м.

В архиве по умолчанию представлена погода в Львове за последнюю неделю. Архивные данные за месяц целиком и за предыдущие месяцы, начиная с января 2011 года, Вы можете получить, выбрав интересующий диапазон дат из раскрывающегося списка и нажав кнопку "Ввод!".


*Определитесь, кто Вы:
робот инопланетянин человек

Внимание! Время в таблицах - всемирное. Для получения местного времени необходимо прибавить поправку, которая равна 2 ч.

Смотрите также архив погоды в соседних городах и на ближайших метеорологических станциях:

Погода в Каменке-Бугской (Львовская область, Украина) (42 км)
Погода в Яворове (Львовская область, Украина) (43 км)
Погода в Межгорье (Закарпатская область, Украина) (48 км)
Погода в Раве-Русской (Львовская область, Украина) (53 км)
Погода в Мостиске (Львовская область, Украина) (57 км)
Погода в Дрогобыче (Львовская область, Украина) (61 км)
Погода в Стрые (Львовская область, Украина) (64 км)
Погода в Славском (Львовская область, Украина) (84 км)
Погода в Бережанах (Львовская область, Украина) (84 км)
Погода в Пшемысле (Польша) (86 км)

Пояснения к столбцам:

Ветер - указаны скорость ветра в м/с - средняя за 10 мин, порывы в срок и между сроками (в фигурных скобках) и направление, откуда дует ветер: С - северный, СВ - северо-восточный, В - восточный, ЮВ - юго-восточный, Ю - южный, ЮЗ - юго-западный, З - западный, СЗ - северо-западный.
Видимость - горизонтальная дальность видимости в метрах или километрах. При видимости от 1 до 10 км при отсутствии осадков обычно наблюдается дымка, при ухудшении видимости до 1 км и менее - туман. В сухую погоду видимость может ухудшаться дымом, пылью или мглою.
Явления - указаны атмосферные явления, наблюдавшиеся в срок или в последний час перед сроком; фигурными скобками обозначены явления, наблюдавшиеся между сроками (за 1-3 часа до срока); квадратными скобками обозначены град или гололедные отложения с указанием их диаметра в мм.
Облачность - указаны через наклонную черту общая и нижняя облачность в баллах и высота нижней границы облаков в метрах; квадратными скобками обозначены формы облаков: Ci - перистые, Cs - перисто-слоистые, Cc - перисто-кучевые, Ac - высококучевые, As - высокослоистые, Sc - слоисто-кучевые, Ns - слоисто-дождевые, Cu - кучевые, Cb - кучево-дождевые. Подробнее классификацию облаков см. в Атласе облаков (PDF).
T - Температура воздуха - температура, измеренная на высоте 2 м над землей.
Td - Температура точки росы - температура, при понижении до которой содержащийся в воздухе водяной пар достигнет насыщения.
f - Относительная влажность воздуха - влажноcть воздуха, измеренная на высоте 2 м над землей.
Te - Эффективная температура - температура, которую ощущает одетый по сезону человек в тени. Характеристика душности погоды. При расчете учитывается влияние влажности воздуха и скорости ветра на теплоощущения человека.
Tes - Эффективная температура на солнце - температура, которую ощущает человек, с поправкой на солнечный нагрев. Характеристика знойности погоды. Зависит от высоты солнца над горизонтом, облачности и скорости ветра. Ночью, в пасмурную погоду, а также при ветре 12 м/с и более поправка равна нулю.
P - Атмосферное давление - приведенное к уровню моря атмосферное давление.
Po - Атмосферное давление - измеренное на уровне метеостанции атмосферное давление.
Tmin - Минимальная температура - минимум температуры воздуха на высоте 2 м над землей.
Tmax - Максимальная температура - максимум температуры воздуха на высоте 2 м над землей.
R - Количество осадков - Количество выпавших осадков за период времени, мм. При наведении курсора мыши на число - период времени, за который выпало указанное количество осадков.
R24 - Количество осадков - Количество выпавших осадков за 24 часа, мм.
S - Снежный покров - Высота снежного покрова, см. При наведении курсора мыши на число - состояние снежного покрова и степень покрытия местности в баллах.